sat.trackr.live / text

‹ back to catalog

STARLINK-34981

NORAD 65198 · 2025-176A

PAYLOAD ACTIVE UNKNOWN

§ Identity

Operator
Country
US
Launch date
2025-08-14
Launch site
AFETR
Launch vehicle
Mass (kg)
RCS (m²)

Purposes: comms

External: N2YO · Heavens-Above · Gunter

§ Orbital elements

Epoch: 2026-09-20T14:57:53.907840Z

Period
93.85 min
Inclination
53.1587°
Eccentricity
0.0001226
Mean motion
15.34403006 rev/d
Perigee alt
461.9 km
Apogee alt
463.5 km
Semi-major
6,840.8 km
B*
5.8962e-4
RAAN
328.8445°
Arg perigee
77.5794°
Mean anomaly
282.5345°
Rev number
6,294

§ Raw data

STARLINK-349811 65198U 25176A   26263.62354060  .00019599  00000+0  58962-3 0  99902 65198  53.1587 328.8445 0001226  77.5794 282.5345 15.34403006 62940

JSON: /api/v1/satellites/65198 · /tle

For live sub-satellite position, see the globe view (requires WebGL).

§ Visibility from observer

Set your observer location to see the next 7 days of passes ≥ 10°. The values pass through the URL so the page stays shareable.

No JS? Fill the form by hand. The geolocation button needs JavaScript.